Showing default

LOGSATS, 62689

Orbit data source: Space-Track

LOGSATS, 62689 is a payload satellite owned by Patriot Info (TH) in SSO that was launched on Tue, 14 Jan 2025 UTC via an FALCON 9 launch vehicle from the Air Force Western Test Range (AFWTR). Payload-class satellites include a variety of spacecraft equipped with specific instruments for various scientific and technological missions. These include communications satellites like Starlink; space stations such as the ISS; scientific satellites like the Hubble; Earth observation satellites from companies like Planet Labs, Umbra, and HawkEye 360; GPS; miniature CubeSats for education and research; and military/defense satellites.

Loading next visibility...
Identifier
62689, 2025-009CJ
Orbit
SSO
Country
Flag of UnknownUnknown / THAI
Related business
None
Manufacturer
Patriot Info
Mission
Operational Commercial Communications
Bus & Motor
CUBESAT 3U, Unknown motor
Mass
5 kg wet, 5 kg dry
Launch date (UTC)
2025-01-14 (11 months ago)
Launch vehicle
FALCON 9
Launch site
Air Force Western Test Range (AFWTR)
Object type
Payload
Rocket body
Debris
Shape & HBR
Box + 2 Pan, 0.2 m
Radar Cross Section
0.035 m², Small (<0.1 m²)

Expand to show TLE details & history
Last TLE update: 15 hours ago

TLE from 15 hours ago
0 LOGSATS
1 62689U 25009CJ  25353.49936596  .00061495  00000-0  11839-2 0  9995
2 62689  97.4097  75.4881 0004304 210.4090 149.6911 15.47674248 51723
Epoch: 2025-12-19T11:59Z
TLE epoch observation values (Epoch: 2025-12-19T11:59:05.218Z)
Latitude
-0.00005°
Longitude
167.37672°
Altitude
429.188 km
Speed
7.653 km/s
True Right ascension
05h 01m 57s
True Declination
0° 00' 00"
Sunlit
Object was in full shadow at epoch
Visualization orbit readout
Latitude
Unknown
Longitude
Unknown
Altitude
Unknown
Speed
Unknown
Apparent Right ascension
Unknown
Apparent Declination
Unknown
Sunlit
N/A
Visualization observer readout
Local Sidereal Time
02:09:40
Azimuth
Unknown
Elevation
Unknown
Doppler factor
Unknown
Orbital elements
Apogee altitude
423.387 km
Perigee altitude
417.535 km
Semi-major axis
6,798.598 km
Eccentricity
0.00043
Inclination
97.4097°
RAAN
75.4881°
Arg. of periapsis
210.409°
True anomaly
149.71598°
Mean anomaly
149.6911°
Eccentric anomaly
149.70354°
Mean motion
3.87181 °/min
Orbital period
92.98 mins
BSTAR
0.0011839
Loading maneuver chart data...
Computing Atmospheric mass density...
Loading historical data...
Loading historical data...
Loading historical data...
Loading historical data...
Loading historical data...
Loading historical data...
Loading historical data...

Documentation

Showing up to 5 results
|